This is the latest recevied weather packets stored in our database for station/object IK6IHU-3. If no packets are shown the sender has not sent any weather packets the latest 10 day(s).
| Time | Temp. | Humidity | Pressure | Rain* | Wind** | Luminosity | Snow |
|---|---|---|---|---|---|---|---|
| 1777450929 | 20.56° C | 47% | 1015.1 hPa | 0 mm | - | 0 W/m² | - |
| 1777450869 | 20.56° C | 45% | 1015 hPa | 0 mm | - | 0 W/m² | - |
| 1777450809 | 20.56° C | 45% | 1014.8 hPa | 0 mm | - | 0 W/m² | - |
| 1777450749 | 20.56° C | 46% | 1014.9 hPa | 0 mm | - | 0 W/m² | - |
| 1777450689 | 20.56° C | 45% | 1015.1 hPa | 0 mm | - | 0 W/m² | - |
| 1777450629 | 20.56° C | 45% | 1014.9 hPa | 0 mm | - | 0 W/m² | - |
| 1777450569 | 20.56° C | 48% | 1015.1 hPa | 0 mm | - | 0 W/m² | - |
| 1777450509 | 20.56° C | 44% | 1015 hPa | 0 mm | - | 0 W/m² | - |
| 1777450449 | 20.56° C | 49% | 1014.9 hPa | 0 mm | - | 0 W/m² | - |
| 1777450389 | 20.56° C | 47% | 1015.1 hPa | 0 mm | - | 0 W/m² | - |
| 1777450329 | 20.56° C | 46% | 1014.9 hPa | 0 mm | - | 0 W/m² | - |
| 1777450269 | 20.56° C | 46% | 1015 hPa | 0 mm | - | 0 W/m² | - |
| 1777450209 | 20.56° C | 49% | 1015.1 hPa | 0 mm | - | 0 W/m² | - |
| 1777450149 | 20.56° C | 50% | 1014.9 hPa | 0 mm | - | 0 W/m² | - |
| 1777450089 | 20.56° C | 48% | 1014.8 hPa | 0 mm | - | 0 W/m² | - |
| 1777450029 | 20° C | 48% | 1015 hPa | 0 mm | - | 0 W/m² | - |
| 1777449969 | 20° C | 48% | 1015 hPa | 0 mm | - | 0 W/m² | - |
| 1777449909 | 20° C | 48% | 1015 hPa | 0 mm | - | 0 W/m² | - |
| 1777449849 | 20° C | 49% | 1015.2 hPa | 0 mm | - | 0 W/m² | - |
| 1777449790 | 19.44° C | 48% | 1014.8 hPa | 0 mm | - | 0 W/m² | - |
| 1777449728 | 20° C | 48% | 1015 hPa | 0 mm | - | 0 W/m² | - |
| 1777449668 | 20° C | 49% | 1014.8 hPa | 0 mm | - | 0 W/m² | - |
| 1777449609 | 20° C | 49% | 1014.7 hPa | 0 mm | - | 0 W/m² | - |
| 1777449549 | 19.44° C | 48% | 1014.8 hPa | 0 mm | - | 0 W/m² | - |
| 1777449489 | 19.44° C | 48% | 1014.8 hPa | 0 mm | - | 0 W/m² | - |
* Rain latest hour (hover to see other rain measurements)
** Current wind speed in m/s (hover to see current wind gust speed)